TAP26TS LPPT-GCTS

Flight info

Callsign TAP26TS
Flight time N/A
Altitude 37000
Route ULVOT DCT BEXAL UN866 KONBA
Aircraft A319/M-SDE3FGHIRWY/LB1

Departure

Time 2026-05-06 18:25
Airport Lisbon Humberto Delgado Airport (LPPT)

Arrival

Time N/A
Airport Tenerife Sur Airport (GCTS)
Time Latitude Longitude Altitude Speed Heading
2026-05-06 18:04 38.76937 -9.13063 337 ft 0 kts 78°
2026-05-06 18:18 38.76934 -9.13083 332 ft 4 kts 82°
2026-05-06 18:19 38.76931 -9.13110 333 ft 3 kts 78°
2026-05-06 18:19 38.76929 -9.13143 335 ft 4 kts 121°
2026-05-06 18:19 38.76948 -9.13158 335 ft 4 kts 167°
2026-05-06 18:19 38.76957 -9.13160 335 ft 0 kts 167°
2026-05-06 18:20 38.76953 -9.13159 335 ft 3 kts 167°
2026-05-06 18:21 38.76903 -9.13145 339 ft 11 kts 168°
2026-05-06 18:21 38.76809 -9.13127 338 ft 13 kts 190°
2026-05-06 18:21 38.76772 -9.13223 336 ft 14 kts 259°
2026-05-06 18:21 38.76746 -9.13363 343 ft 16 kts 248°
2026-05-06 18:22 38.76667 -9.13454 345 ft 15 kts 229°
2026-05-06 18:22 38.76638 -9.13580 349 ft 15 kts 257°
2026-05-06 18:22 38.76617 -9.13711 346 ft 15 kts 258°
2026-05-06 18:22 38.76594 -9.13844 348 ft 16 kts 258°
2026-05-06 18:23 38.76572 -9.13982 354 ft 16 kts 247°
2026-05-06 18:23 38.76506 -9.14095 350 ft 16 kts 242°
2026-05-06 18:23 38.76517 -9.14245 337 ft 20 kts 293°
2026-05-06 18:23 38.76563 -9.14385 333 ft 10 kts 293°
2026-05-06 18:24 38.76609 -9.14407 336 ft 9 kts 14°
2026-05-06 18:24 38.76803 -9.14304 349 ft 65 kts 22°
2026-05-06 18:24 38.77440 -9.13963 362 ft 130 kts 22°
2026-05-06 18:24 38.78419 -9.13420 525 ft 166 kts 20°
2026-05-06 18:25 38.79533 -9.12802 999 ft 184 kts 18°
2026-05-06 18:25 38.80778 -9.12137 1464 ft 207 kts 18°
2026-05-06 18:25 38.82171 -9.11283 1987 ft 235 kts 27°
2026-05-06 18:25 38.83596 -9.10131 2816 ft 248 kts 27°
2026-05-06 18:26 38.85079 -9.08953 3799 ft 253 kts 29°
2026-05-06 18:26 38.86579 -9.07734 4815 ft 258 kts 34°
2026-05-06 18:26 38.87748 -9.05954 5639 ft 271 kts 65°
2026-05-06 18:26 38.88110 -9.03570 6571 ft 276 kts 92°
2026-05-06 18:27 38.87639 -9.01186 7483 ft 280 kts 117°
2026-05-06 18:27 38.86564 -8.99092 8414 ft 283 kts 133°
2026-05-06 18:27 38.84988 -8.97570 9315 ft 287 kts 155°
2026-05-06 18:27 38.83057 -8.96920 10175 ft 290 kts 179°
2026-05-06 18:28 38.81017 -8.97289 10585 ft 309 kts 202°
2026-05-06 18:28 38.79143 -8.98767 11065 ft 323 kts 217°
2026-05-06 18:28 38.77312 -9.00480 11846 ft 328 kts 217°
2026-05-06 18:28 38.75455 -9.02195 12696 ft 331 kts 217°
2026-05-06 18:29 38.73575 -9.03915 13548 ft 333 kts 217°
2026-05-06 18:29 38.71677 -9.05640 14315 ft 335 kts 216°
2026-05-06 18:29 38.69772 -9.07371 15057 ft 338 kts 216°
2026-05-06 18:29 38.67848 -9.09121 15791 ft 340 kts 216°
2026-05-06 18:30 38.65916 -9.10877 16519 ft 342 kts 216°
2026-05-06 18:30 38.63962 -9.12649 17225 ft 346 kts 216°
2026-05-06 18:30 38.61992 -9.14432 17935 ft 349 kts 216°
2026-05-06 18:30 38.60004 -9.16230 18580 ft 352 kts 216°
2026-05-06 18:31 38.58001 -9.18048 19188 ft 355 kts 216°
2026-05-06 18:31 38.55978 -9.19885 19810 ft 358 kts 216°
2026-05-06 18:31 38.53941 -9.21730 20429 ft 361 kts 216°
2026-05-06 18:31 38.51883 -9.23591 21042 ft 364 kts 216°
2026-05-06 18:32 38.49813 -9.25464 21641 ft 367 kts 216°
2026-05-06 18:32 38.47722 -9.27352 22251 ft 370 kts 216°
2026-05-06 18:32 38.45608 -9.29261 22850 ft 373 kts 217°
2026-05-06 18:32 38.43485 -9.31179 23446 ft 376 kts 217°
2026-05-06 18:33 38.41343 -9.33113 23929 ft 379 kts 217°
2026-05-06 18:33 38.39213 -9.35034 24421 ft 381 kts 217°
2026-05-06 18:33 38.37013 -9.37012 24893 ft 383 kts 217°
2026-05-06 18:33 38.34830 -9.38972 25378 ft 385 kts 217°
2026-05-06 18:34 38.32639 -9.40937 25851 ft 387 kts 217°
2026-05-06 18:34 38.30435 -9.42916 26318 ft 388 kts 217°
2026-05-06 18:34 38.28220 -9.44904 26775 ft 390 kts 217°
2026-05-06 18:34 38.25998 -9.46899 27229 ft 392 kts 217°
2026-05-06 18:35 38.23763 -9.48903 27669 ft 394 kts 217°
2026-05-06 18:35 38.21516 -9.50915 28120 ft 396 kts 217°
2026-05-06 18:35 38.19258 -9.52935 28543 ft 398 kts 217°
2026-05-06 18:35 38.17014 -9.54939 28969 ft 400 kts 217°
2026-05-06 18:36 38.14699 -9.57008 29393 ft 402 kts 217°
2026-05-06 18:36 38.12437 -9.59030 29790 ft 405 kts 217°
2026-05-06 18:36 38.10125 -9.61094 30160 ft 407 kts 217°
2026-05-06 18:36 38.07804 -9.63163 30471 ft 409 kts 217°
2026-05-06 18:37 38.05471 -9.65240 30766 ft 412 kts 217°
2026-05-06 18:37 38.03115 -9.67334 31058 ft 414 kts 217°
2026-05-06 18:37 38.00748 -9.69438 31331 ft 417 kts 218°
2026-05-06 18:37 37.98362 -9.71560 31608 ft 420 kts 218°
2026-05-06 18:38 37.95971 -9.73684 31975 ft 420 kts 218°
2026-05-06 18:38 37.93576 -9.75808 32357 ft 420 kts 218°
2026-05-06 18:38 37.91185 -9.77924 32741 ft 420 kts 218°
2026-05-06 18:38 37.88785 -9.80042 33115 ft 420 kts 218°
2026-05-06 18:39 37.86387 -9.82158 33488 ft 421 kts 218°
2026-05-06 18:39 37.83983 -9.84281 33864 ft 421 kts 218°
2026-05-06 18:39 37.81585 -9.86397 34204 ft 421 kts 218°
2026-05-06 18:40 37.76772 -9.90649 34796 ft 422 kts 218°
2026-05-06 18:40 37.74362 -9.92777 35080 ft 423 kts 218°
2026-05-06 18:40 37.71948 -9.94908 35358 ft 423 kts 218°
2026-05-06 18:40 37.69537 -9.97034 35631 ft 424 kts 218°
2026-05-06 18:41 37.67112 -9.99167 35915 ft 424 kts 218°
2026-05-06 18:41 37.64690 -10.01293 36173 ft 425 kts 218°
2026-05-06 18:41 37.62262 -10.03421 36418 ft 425 kts 218°
2026-05-06 18:41 37.59831 -10.05551 36665 ft 426 kts 218°
2026-05-06 18:42 37.57393 -10.07687 36901 ft 427 kts 218°
2026-05-06 18:42 37.52511 -10.11964 36992 ft 427 kts 218°
2026-05-06 18:43 37.47624 -10.16229 36996 ft 427 kts 218°
2026-05-06 18:43 37.42736 -10.20488 36996 ft 428 kts 218°
2026-05-06 18:44 37.37840 -10.24748 36996 ft 428 kts 218°
2026-05-06 18:44 37.32944 -10.29001 36997 ft 428 kts 218°
2026-05-06 18:45 37.28040 -10.33260 37002 ft 428 kts 218°
2026-05-06 18:45 37.23138 -10.37503 37002 ft 428 kts 218°
2026-05-06 18:46 37.18232 -10.41750 37001 ft 429 kts 218°
2026-05-06 18:46 37.13327 -10.45997 37004 ft 429 kts 218°
2026-05-06 18:47 37.08408 -10.50244 37002 ft 429 kts 218°
2026-05-06 18:47 37.03490 -10.54484 37005 ft 430 kts 218°
2026-05-06 18:48 36.98594 -10.58691 37005 ft 430 kts 218°
2026-05-06 18:48 36.93661 -10.62925 37003 ft 430 kts 218°
2026-05-06 18:49 36.88729 -10.67164 37009 ft 431 kts 218°
2026-05-06 18:49 36.83780 -10.71400 37006 ft 431 kts 218°
2026-05-06 18:50 36.78827 -10.75621 37007 ft 431 kts 218°
2026-05-06 18:50 36.73869 -10.79843 37005 ft 432 kts 218°
2026-05-06 18:51 36.68907 -10.84069 37010 ft 432 kts 218°
2026-05-06 18:51 36.63946 -10.88299 37012 ft 433 kts 218°
2026-05-06 18:52 36.58969 -10.92534 37012 ft 433 kts 218°
2026-05-06 18:52 36.53987 -10.96746 37016 ft 434 kts 218°
2026-05-06 18:53 36.48986 -11.00955 37015 ft 434 kts 218°
2026-05-06 18:53 36.43995 -11.05169 37012 ft 434 kts 218°
2026-05-06 18:54 36.39000 -11.09389 37016 ft 434 kts 218°
2026-05-06 18:54 36.34002 -11.13606 37012 ft 435 kts 218°
2026-05-06 18:55 36.28985 -11.17818 37015 ft 436 kts 218°
2026-05-06 18:55 36.23966 -11.22032 37012 ft 436 kts 218°
2026-05-06 18:56 36.19792 -11.25532 37021 ft 436 kts 218°
2026-05-06 18:56 36.14759 -11.29745 37021 ft 436 kts 219°
2026-05-06 18:57 36.09731 -11.33960 37020 ft 437 kts 219°
2026-05-06 18:57 36.04692 -11.38164 37027 ft 437 kts 218°
2026-05-06 18:58 35.99645 -11.42359 37017 ft 437 kts 218°
2026-05-06 18:58 35.94605 -11.46573 37024 ft 437 kts 219°
2026-05-06 18:59 35.89650 -11.50924 37023 ft 437 kts 220°
2026-05-06 18:59 35.84721 -11.55328 37022 ft 438 kts 220°
2026-05-06 19:00 35.79765 -11.59709 37021 ft 438 kts 220°
2026-05-06 19:00 35.74787 -11.64054 37022 ft 439 kts 220°
2026-05-06 19:01 35.69802 -11.68402 37022 ft 439 kts 220°
2026-05-06 19:01 35.64818 -11.72755 37027 ft 439 kts 220°
2026-05-06 19:02 35.59827 -11.77103 37022 ft 440 kts 220°
2026-05-06 19:02 35.54826 -11.81453 37031 ft 441 kts 220°
2026-05-06 19:03 35.49858 -11.85773 37032 ft 441 kts 220°
2026-05-06 19:03 35.44810 -11.90164 37026 ft 442 kts 220°
2026-05-06 19:04 35.39814 -11.94477 37033 ft 442 kts 220°
2026-05-06 19:04 35.34779 -11.98821 37031 ft 443 kts 220°
2026-05-06 19:05 35.29739 -12.03166 37031 ft 443 kts 220°
2026-05-06 19:05 35.24703 -12.07523 37032 ft 444 kts 220°
2026-05-06 19:06 35.19645 -12.11871 37034 ft 445 kts 220°
2026-05-06 19:06 35.14579 -12.16215 37034 ft 445 kts 220°
2026-05-06 19:07 35.09507 -12.20569 37034 ft 446 kts 220°
2026-05-06 19:07 35.04429 -12.24925 37031 ft 446 kts 220°
2026-05-06 19:08 34.99341 -12.29282 37044 ft 447 kts 220°
2026-05-06 19:08 34.94246 -12.33631 37035 ft 447 kts 220°
2026-05-06 19:09 34.89145 -12.37982 37047 ft 448 kts 220°
2026-05-06 19:09 34.84032 -12.42329 37037 ft 449 kts 220°
2026-05-06 19:10 34.78904 -12.46679 37040 ft 449 kts 220°
2026-05-06 19:10 34.73780 -12.51042 37045 ft 450 kts 220°
2026-05-06 19:11 34.68645 -12.55396 37046 ft 450 kts 220°
2026-05-06 19:11 34.63503 -12.59751 37045 ft 451 kts 220°
2026-05-06 19:12 34.58400 -12.64064 37040 ft 451 kts 220°
2026-05-06 19:12 34.53196 -12.68441 37043 ft 452 kts 220°
2026-05-06 19:13 34.48029 -12.72787 37046 ft 452 kts 220°
2026-05-06 19:13 34.42868 -12.77129 37048 ft 452 kts 220°
2026-05-06 19:14 34.37689 -12.81474 37048 ft 453 kts 220°
2026-05-06 19:14 34.32509 -12.85813 37047 ft 453 kts 220°
2026-05-06 19:15 34.27321 -12.90153 37048 ft 454 kts 220°
2026-05-06 19:15 34.22136 -12.94505 37047 ft 454 kts 220°
2026-05-06 19:16 34.16958 -12.98875 37049 ft 454 kts 220°
2026-05-06 19:16 34.11815 -13.03221 37050 ft 455 kts 220°
2026-05-06 19:17 34.06627 -13.07593 37053 ft 455 kts 220°
2026-05-06 19:17 34.01427 -13.11960 37053 ft 455 kts 220°
2026-05-06 19:18 33.96229 -13.16322 37055 ft 456 kts 220°
2026-05-06 19:18 33.91017 -13.20683 37057 ft 456 kts 220°
2026-05-06 19:19 33.85799 -13.25041 37057 ft 457 kts 220°
2026-05-06 19:19 33.80575 -13.29398 37056 ft 457 kts 220°
2026-05-06 19:20 33.75345 -13.33759 37055 ft 458 kts 220°
2026-05-06 19:20 33.70115 -13.38122 37055 ft 458 kts 220°
2026-05-06 19:21 33.64872 -13.42468 37056 ft 458 kts 220°
2026-05-06 19:21 33.59631 -13.46811 37055 ft 458 kts 220°
2026-05-06 19:22 33.54383 -13.51152 37061 ft 458 kts 220°
2026-05-06 19:22 33.49134 -13.55495 37054 ft 458 kts 220°
2026-05-06 19:23 33.43883 -13.59837 37055 ft 459 kts 220°
2026-05-06 19:23 33.38626 -13.64173 37059 ft 459 kts 220°
2026-05-06 19:24 33.33364 -13.68500 37057 ft 459 kts 220°
2026-05-06 19:24 33.28102 -13.72826 37060 ft 459 kts 220°
2026-05-06 19:25 33.22837 -13.77151 37060 ft 459 kts 220°
2026-05-06 19:25 33.17561 -13.81464 37065 ft 459 kts 220°
2026-05-06 19:26 33.12290 -13.85778 37068 ft 460 kts 220°
2026-05-06 19:26 33.07002 -13.90077 37067 ft 460 kts 220°
2026-05-06 19:27 33.01712 -13.94358 37067 ft 460 kts 220°
2026-05-06 19:27 32.96411 -13.98635 37067 ft 460 kts 220°
2026-05-06 19:28 32.91117 -14.02915 37070 ft 460 kts 220°
2026-05-06 19:28 32.85824 -14.07196 37072 ft 460 kts 220°
2026-05-06 19:29 32.80525 -14.11477 37065 ft 460 kts 220°
2026-05-06 19:29 32.75220 -14.15743 37075 ft 461 kts 220°
2026-05-06 19:30 32.69909 -14.20000 37065 ft 461 kts 220°
2026-05-06 19:30 32.64594 -14.24263 37072 ft 461 kts 220°
2026-05-06 19:31 32.59289 -14.28524 37068 ft 461 kts 220°
2026-05-06 19:31 32.51312 -14.34896 37070 ft 461 kts 220°
2026-05-06 19:32 32.45985 -14.39133 37069 ft 461 kts 220°
2026-05-06 19:32 32.40669 -14.43375 37070 ft 461 kts 220°
2026-05-06 19:33 32.35346 -14.47619 37068 ft 461 kts 220°
2026-05-06 19:33 32.30017 -14.51847 37070 ft 462 kts 219°
2026-05-06 19:34 32.24683 -14.56081 37072 ft 462 kts 220°
2026-05-06 19:34 32.19356 -14.60316 37075 ft 462 kts 219°
2026-05-06 19:35 32.14020 -14.64536 37071 ft 462 kts 219°
2026-05-06 19:35 32.08716 -14.68721 37070 ft 462 kts 219°
2026-05-06 19:36 32.03372 -14.72934 37074 ft 462 kts 220°
2026-05-06 19:36 31.98033 -14.77150 37073 ft 462 kts 220°
2026-05-06 19:37 31.92695 -14.81356 37071 ft 462 kts 219°
2026-05-06 19:37 31.88203 -14.84878 37076 ft 462 kts 219°
2026-05-06 19:38 31.81986 -14.89757 37074 ft 462 kts 219°
2026-05-06 19:38 31.76639 -14.93955 37076 ft 462 kts 219°
2026-05-06 19:39 31.72154 -14.97463 37074 ft 462 kts 219°
2026-05-06 19:39 31.66795 -15.01639 37073 ft 462 kts 219°
2026-05-06 19:40 31.61436 -15.05819 37079 ft 462 kts 219°
2026-05-06 19:40 31.56087 -15.09985 37076 ft 462 kts 219°
2026-05-06 19:41 31.50738 -15.14156 37075 ft 462 kts 219°
2026-05-06 19:41 31.45386 -15.18321 37081 ft 461 kts 219°
2026-05-06 19:42 31.40035 -15.22467 37083 ft 461 kts 219°
2026-05-06 19:42 31.34685 -15.26604 37080 ft 461 kts 219°
2026-05-06 19:43 31.29314 -15.30715 37082 ft 462 kts 217°
2026-05-06 19:43 31.23726 -15.34471 37084 ft 464 kts 213°
2026-05-06 19:44 31.17995 -15.37970 37083 ft 465 kts 212°